GW0352 Weather Reports


time (UTC)temp
F
wind
direction
speed
knots
gust
knots
rain 1hr
in
rain 24hr
in
rain mn
in
humidity
%
barometer
mb
20260510105040 61 13 7.8 13.9 0.00 0.00 0.00 60 1015.5
20260510104605 61 31 8.7 14.8 0.00 0.00 0.00 60 1015.7
20260510104042 61 38 6.1 14.8 0.00 0.00 0.00 60 1015.8
20260510103539 61 34 9.6 14.8 0.00 0.00 0.00 59 1015.6
20260510103045 61 30 6.1 13.9 0.00 0.00 0.00 59 1015.5
20260510102540 61 47 8.7 13.9 0.00 0.00 0.00 59 1015.3
20260510102040 61 53 7.8 13.9 0.00 0.00 0.00 60 1015.4
20260510101545 62 36 6.1 13.9 0.00 0.00 0.00 60 1015.3
20260510101043 61 33 6.1 11.3 0.00 0.00 0.00 60 1015.1
20260510100542 61 22 7.0 12.2 0.00 0.00 0.00 60 1014.9
20260510100049 61 19 6.1 13.0 0.00 0.00 0.00 60 1014.9
20260510095540 61 30 6.1 13.0 0.00 0.00 0.00 61 1014.9
20260510095038 61 29 5.2 10.4 0.00 0.00 0.00 61 1014.9
20260510094547 61 40 4.3 8.7 0.00 0.00 0.00 61 1014.7
20260510094043 61 16 5.2 9.6 0.00 0.00 0.00 62 1014.7
20260510093540 61 25 4.3 12.2 0.00 0.00 0.00 62 1014.7
20260510093049 62 26 5.2 12.2 0.00 0.00 0.00 61 1014.4
20260510092619 62 19 6.1 12.2 0.00 0.00 0.00 61 1014.3
20260510092044 62 39 6.1 10.4 0.00 0.00 0.00 61 1014.2
20260510091548 62 26 4.3 11.3 0.00 0.00 0.00 61 1014.2
20260510091039 62 23 5.2 11.3 0.00 0.00 0.00 61 1014.2
20260510090539 62 25 6.1 12.2 0.00 0.00 0.00 61 1014.2
20260510090048 63 34 6.1 12.2 0.00 0.00 0.00 61 1014.1
20260510085542 63 29 5.2 12.2 0.00 0.00 0.00 61 1014.0
20260510085039 63 33 6.1 12.2 0.00 0.00 0.00 61 1014.0
20260510084549 63 36 7.0 12.2 0.00 0.00 0.00 61 1014.0
20260510084040 63 33 7.8 12.2 0.00 0.00 0.00 62 1014.0
20260510083539 63 15 6.1 12.2 0.00 0.00 0.00 62 1014.0
20260510083051 63 36 7.0 12.2 0.00 0.00 0.00 62 1014.1
20260510082538 63 32 7.0 12.2 0.00 0.00 0.00 63 1014.0
20260510082039 63 13 5.2 11.3 0.00 0.00 0.00 63 1014.0
20260510081616 63 29 3.5 9.6 0.00 0.00 0.00 63 1013.9
20260510081040 63 17 3.5 7.8 0.00 0.00 0.00 63 1013.8
20260510080540 63 9 3.5 7.8 0.00 0.00 0.00 62 1013.7
20260510080051 63 27 2.6 7.0 0.00 0.00 0.00 62 1013.6
20260510075539 63 34 2.6 7.0 0.00 0.00 0.00 62 1013.6
20260510075040 63 31 3.5 7.0 0.00 0.00 0.00 62 1013.5
20260510074549 64 19 3.5 7.0 0.00 0.00 0.00 62 1013.4
20260510074040 64 31 3.5 7.0 0.00 0.00 0.00 61 1013.5
20260510073540 64 32 2.6 7.0 0.00 0.00 0.00 60 1013.6
20260510073049 65 9 2.6 5.2 0.00 0.00 0.00 60 1013.7
20260510072540 65 29 2.6 5.2 0.00 0.00 0.00 59 1013.6
20260510072043 65 20 1.7 4.3 0.00 0.00 0.00 59 1013.5
20260510071552 65 22 1.7 6.1 0.00 0.00 0.00 59 1013.6
20260510071040 66 28 1.7 7.8 0.00 0.00 0.00 58 1013.5
20260510070540 66 38 2.6 7.8 0.00 0.00 0.00 58 1013.4
20260510070050 66 38 3.5 7.8 0.00 0.00 0.00 58 1013.4
20260510065541 66 33 3.5 8.7 0.00 0.00 0.00 58 1013.3
20260510065040 66 51 3.5 8.7 0.00 0.00 0.00 58 1013.3
20260510064544 66 36 3.5 7.0 0.00 0.00 0.00 58 1013.3
20260510064039 66 38 2.6 7.0 0.00 0.00 0.00 58 1013.3
20260510063541 66 27 3.5 7.0 0.00 0.00 0.00 57 1013.2
20260510063049 66 24 2.6 5.2 0.00 0.00 0.00 56 1013.3
20260510062540 67 15 2.6 8.7 0.00 0.00 0.00 55 1013.2
20260510062040 67 22 1.7 8.7 0.00 0.00 0.00 55 1012.9
20260510061546 67 30 3.5 7.8 0.00 0.00 0.00 54 1012.7
20260510061042 68 39 1.7 4.3 0.00 0.00 0.00 53 1012.7
20260510060540 68 18 1.7 7.0 0.00 0.00 0.00 53 1012.6
20260510060053 68 27 2.6 7.0 0.00 0.00 0.00 52 1012.7
20260510055542 68 22 2.6 5.2 0.00 0.00 0.00 52 1012.4
20260510055041 68 15 1.7 6.1 0.00 0.00 0.00 51 1012.5
20260510054550 68 13 3.5 8.7 0.00 0.00 0.00 51 1012.4
20260510054040 68 9 3.5 8.7 0.00 0.00 0.00 51 1012.3
20260510053544 68 11 3.5 8.7 0.00 0.00 0.00 52 1012.1
20260510053052 67 9 3.5 8.7 0.00 0.00 0.00 54 1011.9
20260510052540 66 17 5.2 8.7 0.00 0.00 0.00 55 1011.9
20260510052040 66 20 3.5 7.0 0.00 0.00 0.00 56 1011.8
20260510051626 67 9 1.7 3.5 0.00 0.00 0.00 57 1011.7
20260510051044 67 330 0.9 1.7 0.00 0.00 0.00 56 1011.5
20260510050540 67 265 0.0 1.7 0.00 0.00 0.00 55 1011.5
20260510050052 67 137 0.0 1.7 0.00 0.00 0.00 54 1011.4
20260510045540 67 0 0.0 2.6 0.00 0.00 0.00 54 1011.5
20260510045040 68 51 0.0 2.6 0.00 0.00 0.00 54 1011.5
20260510044549 67 126 0.9 2.6 0.00 0.00 0.00 54 1011.5
20260510044040 68 0 0.0 2.6 0.00 0.00 0.00 54 1011.5
20260510043540 68 41 0.9 2.6 0.00 0.00 0.00 54 1011.5
20260510043125 68 38 0.0 1.7 0.00 0.00 0.00 54 1011.5
20260510042540 68 126 0.9 2.6 0.00 0.00 0.00 55 1011.7
20260510042042 68 9 0.9 3.5 0.00 0.00 0.00 55 1011.8
20260510041550 68 334 0.9 3.5 0.00 0.00 0.00 54 1011.9
20260510041040 68 26 0.9 2.6 0.00 0.00 0.00 54 1011.9
20260510040540 68 26 0.9 2.6 0.00 0.00 0.00 54 1011.8
20260510040051 68 19 0.0 2.6 0.00 0.00 0.00 54 1011.7
20260510035540 69 0 0.9 2.6 0.00 0.00 0.00 53 1011.8
20260510035044 69 51 0.9 2.6 0.00 0.00 0.00 53 1011.7
20260510034553 69 146 0.9 3.5 0.00 0.00 0.00 53 1011.6
20260510034040 69 137 1.7 3.5 0.00 0.00 0.00 53 1011.5
20260510033543 69 55 1.7 3.5 0.00 0.00 0.00 53 1011.5
20260510033050 69 111 1.7 3.5 0.00 0.00 0.00 53 1011.3
20260510032540 69 85 0.9 2.6 0.00 0.00 0.00 53 1011.3
20260510032040 70 72 0.9 4.3 0.00 0.00 0.00 52 1011.3
20260510031615 70 59 0.9 5.2 0.00 0.00 0.00 52 1011.2
20260510031040 70 146 2.6 5.2 0.00 0.00 0.00 52 1011.0
20260510030540 70 153 0.0 4.3 0.00 0.00 0.00 51 1011.1
20260510030053 71 338 0.9 6.1 0.00 0.00 0.00 51 1011.2
20260510025540 71 0 1.7 6.1 0.00 0.00 0.00 50 1011.0
20260510025040 71 141 1.7 6.1 0.00 0.00 0.00 50 1011.0
20260510024552 72 209 2.6 6.1 0.00 0.00 0.00 49 1011.2
20260510024040 72 178 2.6 6.1 0.00 0.00 0.00 48 1011.5
20260510023540 73 235 1.7 6.1 0.00 0.00 0.00 47 1011.7
20260510023059 73 158 2.6 6.1 0.00 0.00 0.00 46 1011.5
20260510022540 74 159 1.7 7.0 0.00 0.00 0.00 45 1011.4
20260510022040 75 205 1.7 7.0 0.00 0.00 0.00 44 1011.5
20260510021552 75 234 0.9 6.1 0.00 0.00 0.00 44 1011.4
20260510021039 75 165 1.7 7.0 0.00 0.00 0.00 42 1011.4
20260510020546 76 153 2.6 7.0 0.00 0.00 0.00 41 1011.4
20260510020055 76 212 3.5 10.4 0.00 0.00 0.00 39 1011.7
20260510015542 76 142 4.3 10.4 0.00 0.00 0.00 37 1011.7
20260510015040 76 272 2.6 8.7 0.00 0.00 0.00 39 1011.5
20260510014553 76 275 0.9 4.3 0.00 0.00 0.00 38 1011.3
20260510014040 77 287 1.7 4.3 0.00 0.00 0.00 39 1011.0
20260510013542 77 137 0.9 4.3 0.00 0.00 0.00 36 1010.8
20260510013050 78 216 1.7 3.5 0.00 0.00 0.00 35 1010.6
20260510012541 78 205 0.9 3.5 0.00 0.00 0.00 35 1010.3
20260510012043 78 158 0.9 7.0 0.00 0.00 0.00 34 1010.0
20260510011606 78 144 1.7 7.8 0.00 0.00 0.00 33 1009.7
20260510011039 78 144 3.5 11.3 0.00 0.00 0.00 33 1009.2
20260510010543 78 133 6.1 11.3 0.00 0.00 0.00 32 1008.9
20260510010104 79 142 5.2 11.3 0.00 0.00 0.00 32 1008.6
20260510005539 79 147 6.1 9.6 0.00 0.00 0.00 32 1008.6
20260510005040 79 131 3.5 9.6 0.00 0.00 0.00 31 1008.4
20260510004549 80 140 6.1 9.6 0.00 0.00 0.00 30 1008.2
20260510004043 80 146 5.2 11.3 0.00 0.00 0.00 30 1008.2
20260510003540 80 138 6.1 11.3 0.00 0.00 0.00 29 1008.0
20260510003046 81 120 7.0 10.4 0.00 0.00 0.00 29 1007.8
20260510002539 81 159 6.1 12.2 0.00 0.00 0.00 29 1007.8
20260510002039 81 137 5.2 12.2 0.00 0.00 0.00 28 1007.6
20260510001545 82 163 6.1 11.3 0.00 0.00 0.00 28 1007.5
20260510001040 82 196 5.2 13.0 0.00 0.00 0.00 28 1007.6
20260510000540 82 133 7.0 13.0 0.00 0.00 0.00 27 1007.6
20260510000048 83 135 7.8 12.2 0.00 0.00 0.00 26 1007.5
20260509235616 83 175 5.2 12.2 0.00 0.00 0.00 25 1007.5
20260509235040 84 173 5.2 10.4 0.00 0.00 0.00 24 1007.5
20260509234550 84 178 4.3 10.4 0.00 0.00 0.00 23 1007.5
20260509234043 85 178 3.5 8.7 0.00 0.00 0.00 22 1007.8
20260509233544 85 171 4.3 10.4 0.00 0.00 0.00 21 1007.8
20260509233050 85 175 5.2 11.3 0.00 0.00 0.00 23 1007.8
20260509232541 85 177 7.0 13.9 0.00 0.00 0.00 22 1007.9
20260509232040 85 182 6.1 13.9 0.00 0.00 0.00 23 1007.9
20260509231559 85 173 5.2 13.9 0.00 0.00 0.00 22 1007.9
20260509231041 85 178 5.2 12.2 0.00 0.00 0.00 23 1007.9
20260509230540 86 178 3.5 8.7 0.00 0.00 0.00 24 1007.9
20260509230055 85 173 3.5 8.7 0.00 0.00 0.00 23 1007.9
20260509225541 86 182 2.6 8.7 0.00 0.00 0.00 23 1007.8
20260509225040 86 186 2.6 9.6 0.00 0.00 0.00 21 1007.8
20260509224549 86 182 3.5 11.3 0.00 0.00 0.00 20 1007.8
20260509224040 86 180 5.2 11.3 0.00 0.00 0.00 21 1007.8
20260509223541 86 182 3.5 9.6 0.00 0.00 0.00 21 1007.9
20260509223052 86 183 6.1 9.6 0.00 0.00 0.00 20 1007.8
20260509222541 87 182 2.6 11.3 0.00 0.00 0.00 23 1007.8
20260509222040 86 193 4.3 16.5 0.00 0.00 0.00 22 1007.7
20260509221549 87 182 4.3 17.4 0.00 0.00 0.00 21 1007.7
20260509221041 87 182 5.2 17.4 0.00 0.00 0.00 20 1007.7
20260509220541 87 186 4.3 13.0 0.00 0.00 0.00 20 1007.7
20260509220052 87 184 5.2 15.6 0.00 0.00 0.00 20 1007.6
20260509215541 87 183 4.3 16.5 0.00 0.00 0.00 20 1007.6
20260509215045 87 182 7.0 16.5 0.00 0.00 0.00 20 1007.6
20260509214551 87 169 2.6 13.9 0.00 0.00 0.00 21 1007.6
20260509214040 87 182 3.5 13.9 0.00 0.00 0.00 22 1007.7
20260509213540 87 157 2.6 14.8 0.00 0.00 0.00 20 1007.7
20260509213102 87 0 6.1 14.8 0.00 0.00 0.00 20 1007.8
20260509212542 87 178 5.2 13.9 0.00 0.00 0.00 20 1007.8
20260509212041 87 182 0.9 11.3 0.00 0.00 0.00 22 1008.0
20260509211610 87 178 1.7 12.2 0.00 0.00 0.00 21 1008.0
20260509211041 87 137 5.2 15.6 0.00 0.00 0.00 19 1008.0
20260509210544 87 190 6.1 15.6 0.00 0.00 0.00 21 1008.2
20260509210058 87 178 5.2 13.0 0.00 0.00 0.00 21 1008.2
20260509205540 87 167 3.5 7.8 0.00 0.00 0.00 21 1008.2
20260509205040 87 182 2.6 8.7 0.00 0.00 0.00 21 1008.3
20260509204602 87 236 2.6 9.6 0.00 0.00 0.00 23 1008.4
20260509204040 87 186 2.6 9.6 0.00 0.00 0.00 24 1008.5
20260509203540 87 177 1.7 7.8 0.00 0.00 0.00 23 1008.5
20260509203100 87 215 2.6 8.7 0.00 0.00 0.00 22 1008.6
20260509202544 87 183 3.5 8.7 0.00 0.00 0.00 22 1008.7
20260509202039 87 177 3.5 9.6 0.00 0.00 0.00 22 1008.7
20260509201549 87 178 1.7 10.4 0.00 0.00 0.00 23 1008.6
20260509201040 87 215 3.5 10.4 0.00 0.00 0.00 22 1008.7
20260509200540 87 196 2.6 7.8 0.00 0.00 0.00 24 1008.9
20260509200044 87 178 2.6 14.8 0.00 0.00 0.00 25 1008.9
20260509195540 87 182 6.1 14.8 0.00 0.00 0.00 22 1008.8
20260509195039 86 177 0.9 7.0 0.00 0.00 0.00 21 1009.0
20260509194549 86 0 0.9 10.4 0.00 0.00 0.00 20 1009.2
20260509194040 87 205 4.3 14.8 0.00 0.00 0.00 21 1009.2
20260509193540 87 183 4.3 16.5 0.00 0.00 0.00 23 1009.3
20260509193044 87 155 7.8 16.5 0.00 0.00 0.00 24 1009.2
20260509192542 87 183 0.9 7.0 0.00 0.00 0.00 25 1009.2
20260509192040 87 178 3.5 7.0 0.00 0.00 0.00 27 1009.3
20260509191543 86 175 2.6 7.0 0.00 0.00 0.00 23 1009.3
20260509191039 86 195 3.5 7.0 0.00 0.00 0.00 22 1009.4
20260509190539 86 291 0.9 5.2 0.00 0.00 0.00 24 1009.4
20260509190054 86 200 1.7 11.3 0.00 0.00 0.00 21 1009.4
20260509185539 86 178 1.7 11.3 0.00 0.00 0.00 24 1009.5
20260509185039 86 188 2.6 7.0 0.00 0.00 0.00 26 1009.5
20260509184547 86 294 1.7 9.6 0.00 0.00 0.00 22 1009.6
20260509184040 85 205 1.7 9.6 0.00 0.00 0.00 23 1009.7
20260509183540 85 280 3.5 9.6 0.00 0.00 0.00 24 1009.8
20260509183052 85 195 0.9 6.1 0.00 0.00 0.00 25 1009.8
20260509182538 85 241 1.7 5.2 0.00 0.00 0.00 24 1009.9
20260509182040 85 273 1.7 8.7 0.00 0.00 0.00 24 1009.9
20260509181550 85 178 4.3 8.7 0.00 0.00 0.00 26 1010.0
20260509181040 84 173 1.7 7.8 0.00 0.00 0.00 25 1010.1
20260509180540 84 247 2.6 7.8 0.00 0.00 0.00 26 1010.2
20260509180052 84 196 4.3 7.8 0.00 0.00 0.00 24 1010.4
20260509175539 84 61 0.9 7.8 0.00 0.00 0.00 25 1010.4
20260509175043 84 254 2.6 8.7 0.00 0.00 0.00 24 1010.5
20260509174552 83 178 3.5 8.7 0.00 0.00 0.00 25 1010.6
20260509174039 83 234 4.3 9.6 0.00 0.00 0.00 26 1010.7
20260509173539 83 277 3.5 9.6 0.00 0.00 0.00 26 1010.7
20260509173047 83 180 1.7 9.6 0.00 0.00 0.00 25 1010.7
20260509172539 83 198 1.7 12.2 0.00 0.00 0.00 27 1010.8
20260509172039 83 178 3.5 12.2 0.00 0.00 0.00 26 1010.7
20260509171548 83 243 3.5 8.7 0.00 0.00 0.00 29 1010.8
20260509171041 82 246 3.5 12.2 0.00 0.00 0.00 29 1011.0
20260509170539 82 280 3.5 12.2 0.00 0.00 0.00 26 1011.0
20260509170050 82 277 2.6 9.6 0.00 0.00 0.00 27 1011.0
20260509165540 82 300 1.7 9.6 0.00 0.00 0.00 29 1011.2
20260509165040 81 182 2.6 9.6 0.00 0.00 0.00 29 1011.2
20260509164543 81 221 2.6 9.6 0.00 0.00 0.00 31 1011.1
20260509164040 81 268 1.7 8.7 0.00 0.00 0.00 28 1011.0
20260509163542 80 212 2.6 9.6 0.00 0.00 0.00 31 1011.0
20260509163057 80 265 2.6 9.6 0.00 0.00 0.00 29 1011.0
20260509162540 80 303 3.5 9.6 0.00 0.00 0.00 30 1011.1
20260509162039 80 261 3.5 7.8 0.00 0.00 0.00 30 1011.2
20260509161544 80 192 2.6 13.9 0.00 0.00 0.00 32 1011.3
20260509161039 80 239 2.6 13.9 0.00 0.00 0.00 32 1011.2
20260509160539 79 182 4.3 13.0 0.00 0.00 0.00 35 1011.1
20260509160048 79 273 3.5 11.3 0.00 0.00 0.00 34 1011.2
20260509155538 78 306 3.5 11.3 0.00 0.00 0.00 35 1011.2
20260509155041 78 226 2.6 10.4 0.00 0.00 0.00 35 1011.0
20260509154543 78 205 3.5 10.4 0.00 0.00 0.00 37 1011.1
20260509154038 77 167 1.7 10.4 0.00 0.00 0.00 41 1011.1
20260509153539 76 252 4.3 10.4 0.00 0.00 0.00 38 1011.2
20260509153044 76 161 3.5 10.4 0.00 0.00 0.00 38 1011.1
20260509152539 75 230 4.3 9.6 0.00 0.00 0.00 41 1011.0
20260509152040 75 245 3.5 8.7 0.00 0.00 0.00 43 1011.1
20260509151549 74 291 2.6 7.8 0.00 0.00 0.00 45 1011.2
20260509151039 73 164 1.7 8.7 0.00 0.00 0.00 45 1011.1
20260509150539 73 230 2.6 8.7 0.00 0.00 0.00 46 1011.2
20260509150045 72 51 2.6 7.0 0.00 0.00 0.00 50 1011.1
20260509145540 72 288 1.7 5.2 0.00 0.00 0.00 57 1011.1
20260509145040 71 236 1.7 5.2 0.00 0.00 0.00 58 1011.0
20260509144546 71 227 1.7 7.0 0.00 0.00 0.00 61 1010.9
20260509144040 70 243 3.5 7.0 0.00 0.00 0.00 59 1010.9
20260509143539 69 265 2.6 6.1 0.00 0.00 0.00 62 1010.9
20260509143053 68 286 1.7 6.1 0.00 0.00 0.00 64 1011.0
20260509142539 68 309 2.6 6.1 0.00 0.00 0.00 63 1011.1
20260509142038 67 120 1.7 6.1 0.00 0.00 0.00 64 1011.1
20260509141551 66 249 2.6 7.0 0.00 0.00 0.00 66 1011.0
20260509141040 65 217 0.9 7.0 0.00 0.00 0.00 68 1011.0
20260509140539 65 265 1.7 7.0 0.00 0.00 0.00 69 1011.0
20260509140051 64 137 0.9 5.2 0.00 0.00 0.00 73 1011.1
20260509135539 63 255 0.9 3.5 0.00 0.00 0.00 76 1011.0
20260509135039 62 254 1.7 3.5 0.00 0.00 0.00 79 1011.0
20260509134553 61 0 0.9 7.0 0.00 0.00 0.00 80 1011.0
20260509134039 60 291 2.6 7.0 0.00 0.00 0.00 81 1011.0
20260509133541 59 244 2.6 7.0 0.00 0.00 0.00 84 1011.0
20260509133058 58 221 2.6 6.1 0.00 0.00 0.00 86 1011.0
20260509132539 56 273 1.7 6.1 0.00 0.00 0.00 88 1011.1
20260509132039 55 279 0.9 2.6 0.00 0.00 0.00 89 1011.1
20260509131549 55 221 0.9 2.6 0.00 0.00 0.00 89 1011.1
20260509131043 54 242 0.9 2.6 0.00 0.00 0.00 90 1011.1
20260509130539 53 230 0.9 2.6 0.00 0.00 0.00 90 1011.0
20260509130044 53 247 0.0 2.6 0.00 0.00 0.00 91 1011.0
20260509125539 52 0 0.9 2.6 0.00 0.00 0.00 91 1010.9
20260509125039 51 120 0.0 1.7 0.00 0.00 0.00 91 1011.0
20260509124543 50 41 0.0 1.7 0.00 0.00 0.00 91 1010.9
20260509124039 49 26 0.9 1.7 0.00 0.00 0.00 91 1010.8
20260509123539 48 9 0.0 1.7 0.00 0.00 0.00 91 1010.7
20260509123047 48 309 0.0 1.7 0.00 0.00 0.00 90 1010.7
20260509122539 47 0 0.0 1.7 0.00 0.00 0.00 90 1010.7
20260509122042 46 0 0.0 1.7 0.00 0.00 0.00 90 1010.6
20260509121549 46 22 0.9 1.7 0.00 0.00 0.00 90 1010.6
20260509121042 45 34 0.0 0.9 0.00 0.00 0.00 89 1010.4
20260509120539 45 265 0.0 1.7 0.00 0.00 0.00 89 1010.6
20260509120046 45 0 0.0 1.7 0.00 0.00 0.00 89 1010.6
20260509115538 45 309 0.9 1.7 0.00 0.00 0.00 89 1010.5
20260509115038 44 309 0.0 1.7 0.00 0.00 0.00 89 1010.4
20260509114554 44 9 0.0 1.7 0.00 0.00 0.00 89 1010.4
20260509114040 44 291 0.0 1.7 0.00 0.00 0.00 89 1010.4
20260509113540 44 265 0.0 1.7 0.00 0.00 0.00 88 1010.3
20260509113050 44 221 0.0 2.6 0.00 0.00 0.00 88 1010.2
20260509112539 44 0 0.0 2.6 0.00 0.00 0.00 88 1010.1
20260509112040 44 44 0.9 2.6 0.00 0.00 0.00 88 1010.1
20260509111548 44 9 0.0 0.9 0.00 0.00 0.00 88 1010.0
20260509111040 44 0 0.0 1.7 0.00 0.00 0.00 88 1010.1
20260509110540 44 51 0.0 1.7 0.00 0.00 0.00 88 1010.1
20260509110056 45 51 0.0 1.7 0.00 0.00 0.00 88 1010.0
20260509105540 45 9 0.0 1.7 0.00 0.00 0.00 88 1010.0